Location: Newark
(45.4422°N, 16.2769°E)
Time: 19:58:46
(UTC+00:00)

Vanguard 2 - Pass Details

Date: 15 December 2019
Orbit: 553 x 2938 km, 32.9° (Epoch: 22 January)

Event Time Altitude Azimuth Distance (km) Brightness Sun altitude
Rises 20:55:40 0° 197° (SSW) 4,706 - -57.9°
Reaches altitude 10° 20:59:26 10° 182° (S) 4,099 - -58.5°
Maximum altitude 21:07:33 22° 138° (SE) 3,892 - -59.6°
Drops below altitude 10° 21:18:00 10° 96° (E) 5,453 - -61.0°
Sets 21:24:07 0° 84° (E) 6,694 - -61.8°
